Theta_e
287 287 287 287 287 286 286 286 286 286 286 286 286 287 287 288 288 288 289 288 288 288 288 288 288 288 289 291 292 293 293 293 293 293 294 294 294 294 294 294 293 293 294 294 294 294 294 294 294 294 294 294 294 294 294 294 295 295 295 295 295 296 296 296 297 297 297 298 298 298 298 298 298 298 298 299 299 299 299 299 299 299 300 300 300 300
286 286 286 286 286 285 285 286 286 286 285 285 286 286 287 286 287 287 288 288 288 288 288 288 288 288 288 289 291 292 293 293 293 293 293 293 293 293 293 293 293 293 293 293 293 294 294 294 294 294 294 294 294 294 294 294 295 294 295 295 295 296 296 296 296 297 297 297 297 297 297 297 297 298 298 298 298 298 298 299 299 299 299 299 300 300
285 285 285 286 285 285 285 285 286 286 286 285 286 286 286 286 286 286 287 287 288 288 288 288 288 288 287 288 290 292 292 292 292 293 293 293 293 293 293 293 293 293 293 293 293 293 293 293 294 294 294 294 294 294 294 294 294 294 295 295 295 295 295 295 296 296 296 296 296 297 297 297 297 297 297 298 298 298 299 299 299 299 299 299 299 300
284 284 284 285 285 285 285 285 285 286 286 286 286 286 286 286 286 286 287 287 288 288 288 288 288 287 287 287 289 290 292 292 292 292 292 292 292 292 293 293 293 293 293 293 293 293 293 293 294 294 294 294 294 294 294 294 294 294 294 295 295 295 295 295 295 295 296 296 296 296 296 296 296 297 297 297 298 298 299 299 299 299 299 299 299 300
283 284 284 284 284 284 285 285 285 286 286 286 286 286 286 286 287 287 288 288 288 287 288 287 287 287 287 287 288 289 291 291 291 292 292 292 292 292 292 292 292 292 293 293 293 293 293 293 293 293 293 294 294 294 294 294 294 294 294 294 294 294 295 295 295 295 295 295 295 296 296 296 296 296 297 297 297 298 298 298 298 298 298 298 299 299
283 284 284 284 284 284 284 285 285 286 286 286 286 286 286 287 287 287 287 287 287 287 287 286 286 286 286 286 288 289 290 291 291 291 291 291 292 292 292 292 292 292 292 292 293 293 293 293 293 293 293 294 294 294 294 294 294 294 294 294 294 294 294 294 294 294 294 294 295 295 295 295 295 295 296 296 297 297 297 297 297 297 297 298 298 298
283 284 284 284 284 284 284 285 285 285 285 285 286 286 287 287 287 287 286 286 286 286 286 286 286 286 286 286 287 288 289 289 290 290 291 291 291 291 291 292 292 292 292 292 293 293 293 293 293 293 293 293 293 293 293 293 294 293 293 293 294 294 294 294 294 294 294 294 294 294 294 294 294 294 295 295 295 295 296 296 296 296 297 297 297 297
282 283 283 283 283 284 284 285 285 286 286 285 285 286 286 286 286 286 285 285 285 285 285 285 285 285 285 285 286 287 287 287 287 288 288 289 290 290 291 291 291 292 292 292 293 293 293 293 293 293 293 293 293 293 293 293 293 293 293 293 293 293 293 293 293 293 293 293 293 293 293 293 294 294 294 294 294 295 295 295 296 296 296 297 297 297
282 282 283 283 283 283 283 284 285 286 287 286 286 285 284 284 284 284 284 284 284 284 284 284 284 284 284 285 285 285 286 286 286 286 287 287 287 288 289 290 291 292 292 292 292 292 292 292 293 293 293 293 293 293 293 293 292 292 292 292 292 292 292 292 292 292 293 293 293 293 293 293 293 293 293 293 294 294 294 294 295 295 296 296 297 297
282 282 282 283 284 284 283 284 285 287 287 287 286 285 284 283 282 282 282 282 283 284 284 283 283 283 283 284 284 285 286 286 287 288 288 288 288 289 289 290 290 290 291 292 292 292 292 292 292 292 292 292 292 292 292 292 292 292 292 292 292 292 292 292 292 292 292 292 292 292 292 293 293 293 293 293 293 293 293 294 294 295 295 296 296 297
282 283 283 283 284 285 285 285 286 287 287 286 285 284 284 283 282 281 280 281 282 282 283 283 283 283 282 283 284 284 285 285 286 287 288 289 289 290 290 290 290 290 291 291 291 291 291 291 291 292 291 292 292 292 291 291 291 291 291 291 291 291 291 291 291 291 292 292 292 292 292 292 292 292 293 293 293 293 293 293 294 294 294 295 296 296
283 283 283 284 284 285 285 285 285 285 285 283 282 282 282 283 282 282 280 280 281 281 282 282 283 283 283 283 283 284 284 284 284 284 285 286 287 287 288 288 288 289 289 289 290 290 290 291 291 291 291 291 291 291 291 290 290 290 291 291 291 291 291 291 291 291 291 292 292 292 292 292 292 292 293 293 293 293 293 293 293 294 294 295 295 296
283 283 284 284 284 284 284 283 283 283 282 282 281 280 280 282 282 282 281 281 281 281 281 281 282 282 283 283 283 284 284 283 284 284 284 284 285 285 285 285 285 286 286 286 287 287 289 289 290 290 290 290 290 290 290 290 290 290 290 290 290 290 291 291 291 291 291 291 291 292 292 292 292 292 292 292 293 293 293 293 293 294 294 294 295 295
283 283 284 283 283 283 282 282 281 281 281 281 281 281 281 282 282 282 281 281 281 281 281 281 281 282 283 283 284 284 284 283 283 283 283 284 284 285 285 284 284 285 285 285 285 285 287 288 287 287 289 289 289 289 289 289 290 290 290 290 290 290 291 291 291 291 291 291 291 292 292 292 292 292 292 292 292 293 293 293 293 293 293 294 294 295
283 283 282 282 281 281 281 281 281 280 281 281 282 282 282 282 282 281 280 280 280 281 281 281 281 281 282 283 284 284 284 283 283 282 282 283 284 285 285 284 284 284 284 284 284 285 286 286 286 285 286 287 287 287 288 289 289 290 290 290 290 290 291 291 291 291 291 291 291 292 292 292 292 292 292 292 292 292 293 293 293 293 293 293 293 294
283 282 281 280 280 280 281 281 281 281 281 281 282 282 281 281 281 281 280 280 280 280 280 279 279 280 281 283 284 285 284 283 282 282 282 282 284 285 285 284 283 283 284 284 284 284 285 285 285 285 285 286 287 289 289 289 289 290 290 290 290 291 291 291 291 291 291 291 291 291 292 292 292 292 292 292 292 292 292 292 292 293 293 293 293 293
282 281 281 280 280 280 281 281 281 281 281 281 282 282 281 281 281 281 280 280 280 280 279 279 278 278 279 281 283 284 285 283 282 282 281 282 283 284 285 284 283 282 283 283 284 284 284 284 284 285 285 287 288 289 289 289 290 290 290 290 290 290 290 290 291 291 291 291 291 291 291 292 292 292 292 292 292 292 292 293 293 293 293 293 293 293
282 281 281 280 280 280 281 281 281 281 281 281 281 281 282 282 282 281 281 281 280 280 279 279 279 279 279 279 281 283 284 283 282 281 281 281 282 283 284 284 283 282 283 283 283 284 284 284 284 285 285 288 289 289 289 289 290 290 290 290 290 290 290 290 291 291 291 291 291 291 291 291 292 292 292 292 292 292 292 293 293 293 293 293 293 293
281 281 281 280 280 280 281 281 281 281 281 281 281 281 281 281 282 282 281 281 281 280 280 280 280 280 280 280 281 283 284 283 282 281 280 280 281 282 284 283 283 283 282 283 283 284 284 284 285 287 288 289 289 289 289 289 289 290 290 290 290 290 290 290 290 291 291 291 291 291 291 292 291 292 292 292 292 292 292 292 292 293 293 293 293 293
281 281 281 281 281 281 280 281 281 281 281 282 282 281 281 281 281 281 281 281 281 281 281 281 280 280 280 280 281 282 284 283 282 280 279 279 280 282 283 283 282 282 282 282 283 284 284 284 285 286 287 288 289 289 289 289 289 290 290 290 290 290 290 290 291 291 291 291 291 291 291 292 292 292 292 292 292 292 292 292 292 292 293 293 293 293
281 281 282 282 281 281 280 281 282 282 283 283 282 282 281 281 281 281 281 282 282 282 282 281 280 280 280 280 281 282 283 283 281 280 279 279 280 281 282 283 282 282 281 282 283 284 284 284 284 284 286 287 288 289 289 289 289 289 290 290 290 290 290 290 290 291 291 291 291 291 291 291 291 292 292 292 292 292 292 292 293 293 293 293 293 293
281 281 282 282 282 282 281 282 283 283 284 284 283 282 281 281 281 281 282 282 282 281 281 280 280 281 281 281 282 282 283 283 281 280 279 279 279 280 282 282 282 281 281 282 283 283 284 284 284 284 286 288 288 289 289 289 289 289 290 290 290 290 290 290 290 290 291 291 291 291 291 291 292 292 292 292 292 292 292 292 292 293 293 293 293 293
282 282 282 283 283 283 283 283 283 284 285 284 284 283 283 283 282 282 283 282 282 281 281 281 281 282 282 282 282 283 283 283 282 281 280 278 278 280 282 282 282 281 281 282 282 283 283 283 284 284 286 287 288 288 289 289 289 289 289 290 290 290 290 290 290 290 290 291 291 291 291 291 291 292 292 292 292 292 292 292 292 293 293 293 293 293
283 283 283 283 284 284 284 284 284 284 285 285 285 285 285 285 285 284 284 283 282 282 281 281 281 281 281 281 281 282 283 283 283 282 280 279 279 280 281 282 281 281 281 282 282 283 283 283 283 284 285 286 287 288 288 289 289 289 289 289 289 290 290 290 290 290 291 291 291 291 291 291 292 292 292 292 292 292 292 292 292 293 293 293 293 293
284 284 284 284 285 285 285 285 286 286 287 287 287 286 286 286 285 285 284 283 282 282 281 280 279 279 279 280 280 281 282 283 283 282 280 279 279 280 281 281 281 280 280 281 282 283 282 282 282 283 284 285 286 288 288 288 289 289 289 289 289 290 290 290 290 290 290 291 291 291 291 291 291 292 292 292 292 292 292 292 292 292 292 293 292 292
286 286 286 287 287 288 289 289 290 290 290 288 287 286 285 284 283 283 282 281 281 280 279 278 277 277 278 278 279 279 281 282 283 282 281 279 279 279 280 281 281 281 280 281 282 282 282 281 282 282 283 283 285 287 288 288 288 289 289 289 289 290 290 290 290 290 290 290 290 291 291 291 291 291 292 292 292 292 292 292 292 292 293 292 292 292
288 288 288 288 289 289 290 290 290 290 289 288 287 286 285 283 282 281 279 279 279 279 278 277 276 276 277 277 278 279 280 281 282 282 281 280 279 278 279 281 281 281 280 281 281 282 282 281 281 282 282 282 284 285 287 288 288 288 289 289 289 290 290 290 290 290 290 290 290 291 291 291 291 291 292 292 292 292 292 292 292 293 293 292 292 292
287 288 288 288 289 289 289 289 288 288 288 287 287 287 285 283 281 279 278 279 279 279 277 276 276 276 276 276 277 278 280 280 281 282 282 280 279 279 280 281 281 281 280 280 281 281 282 282 281 281 282 282 283 284 286 287 288 288 288 289 289 289 289 289 290 290 290 290 290 290 291 291 291 291 292 292 292 292 292 292 292 292 292 292 291 290
287 288 288 288 288 288 287 286 286 286 286 286 286 286 285 282 280 279 279 280 279 278 277 277 276 276 276 277 277 278 279 279 281 282 282 280 279 279 280 281 281 280 280 279 279 280 280 281 281 281 281 283 283 283 284 285 286 286 287 288 288 288 289 289 289 290 290 290 290 291 291 291 291 291 292 292 292 292 292 293 292 292 291 291 290 289
286 286 286 286 285 285 285 284 284 285 285 285 286 285 285 283 281 280 280 280 279 278 277 277 277 277 277 276 276 276 277 278 280 282 282 280 279 279 280 280 280 280 280 278 278 277 278 279 281 281 282 282 283 283 283 283 284 284 285 286 286 287 288 289 289 289 290 290 290 291 291 291 291 292 292 292 292 292 292 292 292 291 290 290 289 289
284 283 283 283 283 283 283 282 283 283 284 284 284 284 284 283 282 281 281 280 280 278 278 277 277 277 277 276 275 275 275 278 281 282 282 280 278 279 279 279 279 280 280 279 277 275 275 277 279 281 282 282 282 282 282 283 283 283 283 284 285 286 287 288 289 289 289 290 290 290 291 291 291 291 291 291 292 292 292 292 292 291 290 289 288 288
282 282 281 281 281 282 282 282 282 282 282 282 283 283 283 282 282 282 281 281 280 279 278 278 277 277 277 277 276 275 275 278 280 282 282 280 279 279 280 279 279 279 280 279 278 276 275 276 277 279 280 281 281 281 282 283 283 283 283 283 283 284 287 287 288 288 288 289 290 290 290 290 290 291 291 291 291 292 292 292 292 291 290 288 288 287
281 281 281 281 281 281 281 281 281 281 281 281 282 282 282 282 282 282 282 281 281 280 279 278 278 277 277 277 277 277 277 278 281 283 283 280 279 279 280 279 279 279 280 280 279 278 277 277 277 278 279 280 280 281 281 282 283 283 283 283 283 284 285 286 287 287 287 288 288 289 289 290 290 290 290 291 291 291 291 292 292 291 290 289 288 287
281 280 280 280 280 280 280 281 281 281 281 281 281 282 282 282 282 282 282 282 281 281 280 279 278 278 277 277 277 277 277 279 281 283 283 281 280 279 279 279 278 278 278 278 278 278 278 277 277 278 278 279 280 281 281 282 282 283 283 283 283 283 284 285 285 285 285 286 286 286 287 288 289 289 290 290 290 291 291 292 292 292 291 290 289 288
280 280 280 280 280 280 280 280 280 280 281 281 281 281 281 281 281 281 282 282 282 281 281 280 280 279 278 277 277 277 277 279 281 283 283 281 280 279 279 279 278 278 278 278 277 277 277 277 278 278 278 278 279 280 281 281 282 283 283 283 283 283 283 284 284 284 285 285 285 285 286 286 287 287 288 289 290 290 291 291 292 292 292 292 291 290
279 279 279 279 279 279 279 280 280 280 280 280 281 281 281 281 281 281 281 281 282 282 282 281 281 281 280 279 278 278 278 279 281 283 283 282 280 279 278 279 279 279 278 277 277 277 277 277 278 278 278 277 277 278 280 281 282 282 282 283 283 283 283 284 284 284 284 284 284 285 285 285 286 286 287 289 290 290 291 291 291 292 292 292 292 291
278 278 279 279 279 279 279 279 279 280 280 280 280 281 281 281 281 281 281 281 281 281 282 282 282 282 282 281 280 280 280 280 281 282 283 282 281 280 279 279 280 280 279 278 277 277 277 277 277 277 277 277 277 278 279 280 281 281 281 282 282 283 283 284 284 284 284 284 284 285 285 285 286 286 287 289 290 290 290 291 291 291 292 292 292 292
278 278 278 279 279 279 279 279 279 279 280 280 280 280 281 281 281 281 281 281 281 281 281 281 281 282 283 283 282 282 282 282 282 282 282 282 281 281 280 279 280 280 280 279 278 278 277 276 276 276 276 277 277 278 279 280 280 280 280 281 282 283 283 283 284 284 284 284 285 285 286 286 286 286 286 287 287 288 288 288 289 290 291 291 291 292
278 278 278 279 279 279 279 279 279 280 280 280 280 281 281 281 281 281 281 281 281 281 281 281 282 282 282 282 283 283 283 283 282 282 282 282 282 281 281 280 280 280 281 280 280 279 278 277 276 276 276 276 277 278 279 279 279 280 280 281 282 282 283 283 284 284 284 284 284 285 285 285 285 286 286 286 286 286 286 286 287 288 289 288 289 290
278 278 278 279 279 280 279 280 280 280 280 280 281 281 281 281 281 281 281 281 282 282 282 282 282 282 283 283 283 283 284 283 283 283 283 283 282 282 281 281 280 280 281 281 280 279 279 278 277 277 277 277 277 278 278 279 279 280 281 280 280 281 282 283 284 284 284 284 284 284 284 285 285 286 286 286 286 286 286 286 287 287 288 287 287 287
278 278 278 279 280 280 280 280 281 281 281 280 280 280 280 280 280 280 280 281 281 281 282 282 282 282 282 283 283 283 283 283 283 284 283 283 283 282 282 281 281 281 281 280 280 280 279 279 278 278 278 278 278 278 279 279 280 281 281 280 280 280 282 283 284 284 284 284 284 285 285 285 286 286 286 286 286 286 287 287 287 287 288 287 287 286
278 278 279 279 279 280 280 280 281 281 281 280 280 279 279 280 279 279 279 279 280 280 281 281 281 280 280 281 281 282 283 283 283 283 283 283 283 283 283 282 282 282 281 280 280 280 280 280 279 279 279 279 279 278 279 279 280 281 281 281 281 281 282 283 283 284 284 284 284 285 286 285 285 285 286 286 286 287 288 288 288 288 288 288 288 287
278 278 279 279 279 280 280 281 281 280 280 279 279 279 279 280 280 279 279 279 279 279 280 280 280 280 279 279 280 281 282 282 283 283 284 283 283 283 283 283 283 282 282 281 280 280 280 281 280 280 280 280 280 279 279 279 280 281 281 281 281 280 279 280 282 283 284 284 284 285 285 285 285 286 286 286 287 287 288 288 288 289 289 288 288 288
278 279 279 279 280 280 280 280 279 279 279 279 279 279 279 280 280 280 279 279 279 279 280 280 280 279 279 279 279 279 280 281 282 282 283 284 284 284 284 284 283 283 283 281 280 280 280 280 280 281 281 281 280 280 279 279 280 280 280 281 281 280 279 280 281 282 283 284 284 285 285 285 286 286 286 286 286 286 286 287 287 287 288 288 288 288
278 279 279 279 279 279 279 278 279 279 279 279 279 279 279 280 280 280 279 279 279 279 279 279 279 279 278 278 278 279 279 280 281 282 282 284 285 286 285 284 284 283 283 282 282 281 280 280 280 281 282 281 281 280 279 279 280 280 281 281 282 282 282 282 283 283 283 284 284 284 285 285 285 285 285 285 285 285 286 286 286 286 287 287 288 288
278 278 278 278 278 278 278 278 278 278 278 278 278 279 279 280 280 280 280 279 279 279 279 279 279 278 277 278 278 278 278 279 280 280 281 282 283 284 284 284 284 284 284 283 283 283 282 281 281 281 281 281 281 280 280 280 280 280 280 281 281 282 282 283 283 283 284 284 284 284 285 285 285 284 284 284 284 284 285 285 286 286 286 287 287 288
278 277 277 277 277 277 277 278 278 278 278 278 278 279 279 280 279 279 279 279 279 279 279 279 279 278 278 278 278 278 278 278 279 279 280 281 282 283 283 284 285 285 284 284 284 283 283 283 283 282 281 280 280 279 280 280 280 280 280 281 281 282 282 282 283 284 284 284 284 284 285 285 284 283 283 283 283 284 284 285 286 286 287 287 287 288
278 277 277 277 277 277 277 277 277 277 277 278 278 278 279 279 279 279 279 279 279 279 279 278 278 278 278 278 278 279 279 278 279 279 280 281 281 282 283 283 284 284 284 285 284 284 284 284 284 283 282 281 280 279 279 280 281 281 281 282 282 282 282 283 283 284 285 285 284 284 284 284 283 283 283 283 283 283 284 284 285 286 286 287 287 288
278 277 277 277 277 277 277 277 277 277 277 277 278 278 278 279 280 280 279 279 279 278 278 278 278 278 278 278 279 279 279 279 279 279 280 281 281 282 282 282 283 283 283 283 284 284 284 284 284 284 284 283 281 281 280 281 281 282 282 282 282 282 282 283 283 284 284 284 284 284 284 284 284 283 283 282 282 282 283 284 284 285 286 287 287 288
277 277 277 277 277 277 277 277 277 277 277 277 277 277 278 278 279 279 279 279 279 278 278 278 278 278 278 278 278 279 279 279 279 279 280 281 281 281 282 282 282 282 282 282 282 282 282 282 283 284 286 286 284 283 281 281 282 282 282 282 282 282 282 282 283 283 284 284 284 284 284 284 284 284 283 282 282 282 282 283 283 284 286 287 287 288
277 277 277 277 277 277 277 277 277 277 277 277 277 277 277 278 278 278 278 279 278 278 278 278 278 278 278 278 278 279 279 279 279 279 280 281 281 281 281 281 281 281 280 280 280 280 280 279 280 281 283 286 286 285 283 282 282 281 281 282 282 282 282 282 282 283 283 284 284 284 283 283 284 284 283 283 282 282 282 282 282 284 285 286 286 287
Wind_Speed
7 7 7 9 10 10 9 11 12 12 11 10 10 10 10 11 11 12 14 14 14 13 12 12 13 14 16 19 22 24 26 27 27 28 28 28 28 28 28 28 28 28 29 29 29 29 30 30 30 30 30 30 30 31 31 31 31 31 31 31 32 32 32 32 32 32 32 32 32 32 31 31 31 31 31 31 31 31 31 31 31 31 31 31 31 31
7 7 7 9 11 10 9 11 11 12 12 12 11 11 11 12 12 11 11 12 13 12 12 12 13 14 16 17 21 24 25 26 27 27 27 27 27 28 28 28 28 29 29 29 30 30 30 30 30 30 30 31 31 31 31 31 31 31 31 31 32 32 32 32 32 32 32 32 32 32 32 32 31 31 31 32 31 31 31 31 31 31 31 31 31 31
8 8 7 8 9 10 9 10 11 11 12 12 12 12 14 14 12 10 9 10 10 11 11 11 12 14 15 16 19 22 24 25 26 26 27 27 27 28 28 28 28 29 29 30 30 30 30 30 30 30 31 31 31 31 31 31 31 31 31 31 32 32 32 32 32 32 32 32 32 32 32 32 31 31 31 32 32 32 32 32 32 32 31 31 31 32
8 8 8 7 8 9 9 10 10 11 11 12 13 14 15 13 11 10 9 9 10 10 11 12 13 13 13 13 16 19 23 24 25 26 26 27 27 28 28 28 29 29 30 30 30 30 30 30 30 30 30 31 31 31 31 31 31 31 31 31 32 32 32 32 32 32 32 32 32 32 32 31 31 31 31 31 31 31 32 32 31 31 31 31 31 31
8 8 8 7 8 8 9 10 10 10 10 11 12 12 12 10 9 9 9 10 10 11 11 12 13 13 12 11 13 17 22 24 25 26 27 27 27 28 28 29 29 29 30 30 30 30 30 30 30 30 30 31 31 31 31 31 31 31 31 31 31 32 32 32 32 32 31 31 31 31 31 31 31 31 31 31 31 31 31 31 31 31 31 31 31 31
8 8 8 7 7 7 8 9 9 9 10 9 10 10 9 9 8 8 9 9 10 10 10 10 11 12 12 12 14 17 21 23 25 26 26 27 28 28 28 29 29 29 30 30 30 30 30 30 30 30 30 31 31 31 31 31 31 31 31 31 31 31 31 31 31 31 31 31 31 31 31 31 31 31 31 31 31 31 31 31 31 31 31 31 32 32
8 7 7 8 8 7 7 8 9 9 9 8 8 7 7 8 8 9 10 10 10 10 10 10 10 11 11 12 14 17 19 21 23 24 25 26 27 27 28 28 29 29 30 30 30 30 30 30 30 30 30 30 31 31 31 31 31 31 31 31 31 31 31 31 31 31 31 31 31 31 31 31 31 31 31 31 31 31 31 31 31 31 32 32 32 32
9 8 8 8 8 8 7 7 8 8 8 7 7 7 8 8 8 9 9 10 10 10 9 9 9 10 10 11 13 14 14 16 17 19 21 22 23 24 26 27 28 29 30 30 30 30 30 30 30 30 30 30 30 30 30 30 30 30 30 30 30 30 30 31 31 31 31 31 31 31 30 30 30 30 30 30 30 30 30 31 31 31 31 32 32 32
10 10 9 8 8 9 9 7 7 6 7 7 7 8 9 9 9 8 8 9 9 9 9 9 9 9 9 10 11 12 13 14 14 15 16 17 18 19 22 24 26 27 28 29 29 29 29 29 29 29 29 30 30 30 30 30 30 30 30 30 30 30 30 30 30 30 30 30 30 30 30 30 30 30 30 30 30 30 30 30 30 30 31 31 31 32
10 10 9 9 8 8 8 7 6 6 6 7 8 8 8 10 11 10 9 9 8 8 8 9 9 10 9 10 10 11 13 14 17 19 20 19 20 22 22 22 22 23 26 27 28 28 28 28 28 28 29 29 29 29 29 29 29 29 29 29 29 29 29 29 30 30 30 30 30 30 30 29 29 29 29 29 29 29 29 29 30 30 30 31 31 31
9 9 9 9 7 6 5 5 6 6 7 8 8 8 8 9 10 10 11 10 9 8 8 8 9 9 9 9 10 11 11 12 14 16 18 20 22 23 23 22 22 23 25 25 26 26 26 27 27 28 28 28 28 28 28 28 28 28 28 28 29 29 29 29 29 29 29 29 29 29 29 29 29 29 29 29 29 29 29 29 30 30 30 31 31 31
8 8 7 7 6 5 5 5 6 7 7 8 9 9 8 8 8 9 11 11 10 9 9 8 8 8 9 10 10 10 11 11 11 12 12 13 15 15 16 16 17 18 20 20 21 22 24 25 26 26 27 27 27 27 27 27 27 27 28 28 28 28 28 28 28 28 28 29 29 29 29 29 29 29 29 29 29 30 30 30 30 30 30 31 31 31
7 6 6 5 5 6 6 7 7 7 8 8 9 10 9 8 7 7 8 10 10 9 9 9 9 9 9 9 10 10 10 11 11 11 10 10 10 10 10 11 11 12 12 13 14 15 19 22 23 24 25 25 26 26 27 26 26 26 27 27 27 27 27 27 28 28 28 29 29 29 29 29 29 30 30 30 30 30 30 30 30 30 30 31 31 31
7 6 6 6 6 7 7 8 9 9 9 8 9 9 9 8 8 8 8 9 9 9 9 10 10 9 8 9 9 9 10 10 10 10 10 9 9 9 9 10 10 10 10 11 11 12 15 17 17 18 21 22 23 24 24 24 25 26 26 27 27 27 28 28 28 28 29 29 29 30 30 30 30 30 30 30 30 30 30 30 30 30 30 31 31 31
7 7 7 7 7 8 8 9 9 10 9 9 8 9 9 8 8 8 8 9 9 9 9 10 10 10 8 8 8 8 9 9 9 10 10 10 9 9 9 10 11 11 10 11 11 12 15 14 13 14 16 18 20 21 22 23 25 26 26 27 28 28 28 29 29 29 29 30 30 30 30 30 30 30 30 30 30 31 31 31 31 31 31 31 31 31
7 7 8 8 9 9 8 9 9 9 9 9 8 8 8 8 8 8 8 9 9 8 8 9 10 10 8 7 7 7 8 8 9 10 11 11 10 9 9 10 11 11 11 11 11 12 12 12 12 13 14 17 21 23 25 25 26 27 27 28 28 29 29 29 29 30 30 30 30 30 30 30 30 30 31 31 31 31 31 31 31 31 31 31 31 32
7 8 8 9 9 9 9 9 9 9 9 8 8 8 8 8 8 8 8 8 8 7 7 8 9 9 7 6 6 6 7 8 8 9 11 11 11 10 9 10 11 12 12 12 11 11 11 11 11 12 12 17 21 24 26 27 27 28 28 29 29 29 29 29 29 30 30 30 30 30 30 30 31 31 31 31 31 31 31 31 31 31 31 32 32 32
7 8 8 9 9 9 9 9 8 8 8 8 8 8 8 8 8 8 8 8 8 8 8 8 7 7 7 6 6 5 7 8 9 10 11 12 11 10 10 10 11 12 12 12 11 11 11 11 11 12 14 20 24 26 27 28 28 28 29 29 29 29 29 29 30 30 30 30 30 31 31 31 31 31 31 31 31 31 31 31 31 32 32 32 32 32
8 8 8 9 9 9 8 8 8 8 8 8 8 8 9 9 9 9 9 9 9 9 9 8 8 7 7 8 8 8 8 8 9 10 11 12 11 11 10 10 11 12 12 12 11 11 10 11 12 15 19 23 26 27 28 28 28 29 29 29 29 29 30 30 30 30 30 31 31 31 31 31 31 31 31 31 31 31 31 31 31 32 32 32 32 32
10 9 8 9 9 9 9 8 8 8 9 9 9 9 9 9 9 9 9 9 8 8 7 8 8 8 8 9 10 10 9 9 9 10 11 12 12 11 10 10 11 12 12 11 10 10 10 10 12 15 20 22 25 26 27 28 28 29 29 30 30 30 30 30 30 30 31 31 31 31 31 31 31 31 31 31 31 31 31 31 31 31 32 32 32 32
10 10 9 8 9 9 8 8 9 10 10 10 9 9 9 9 9 10 9 9 8 8 7 7 8 8 8 10 11 11 10 9 9 9 9 9 10 10 9 9 10 11 12 11 10 10 10 11 11 12 15 20 24 26 27 28 29 29 30 30 30 30 30 30 30 30 30 30 30 30 30 30 30 30 30 30 31 31 31 31 31 31 31 32 32 32
10 10 10 11 10 9 9 10 11 12 11 10 9 8 8 9 9 9 9 8 7 8 8 9 9 10 10 11 12 11 10 9 8 8 7 9 10 10 8 9 10 11 12 11 10 10 10 10 10 12 16 21 25 27 29 29 29 30 30 30 30 30 30 30 30 30 30 30 30 30 29 29 30 30 30 30 30 31 31 31 31 31 31 31 32 32
10 10 11 11 10 10 10 10 10 11 11 10 9 9 8 8 8 8 7 7 8 8 9 10 10 11 11 11 11 11 10 9 8 7 6 9 10 10 8 8 9 10 11 10 10 10 10 10 11 12 16 22 25 27 29 29 29 30 30 30 30 30 30 30 29 29 29 29 29 29 29 29 29 30 30 30 30 31 31 31 31 31 31 31 31 31
10 11 11 10 9 9 9 9 9 9 9 9 8 8 7 7 8 7 7 8 9 9 9 10 10 11 10 11 11 10 9 8 7 6 6 8 9 10 8 8 9 11 11 10 10 10 11 11 11 12 13 20 24 26 28 29 29 29 29 29 29 29 29 29 29 29 29 29 29 29 29 29 30 30 30 30 31 31 31 31 31 31 31 31 31 31
10 10 10 10 11 12 13 13 13 12 11 9 8 8 8 9 10 10 10 10 9 9 9 9 10 10 10 10 10 9 8 8 7 6 6 6 8 9 9 8 9 10 11 10 10 10 11 11 12 12 12 16 21 24 27 28 28 28 28 28 28 28 28 28 28 28 29 29 29 29 29 30 30 30 30 30 31 31 31 31 31 31 31 31 31 31
14 14 15 17 20 23 24 24 23 21 20 16 13 10 10 10 10 10 10 9 9 8 8 9 10 10 9 9 8 8 7 7 7 6 6 6 8 9 8 8 9 10 11 10 10 10 11 12 12 12 12 13 17 21 24 26 26 27 27 27 27 28 28 28 28 28 29 29 29 29 30 30 30 30 30 30 30 30 31 31 31 31 31 31 31 30
21 23 25 26 27 27 26 26 26 26 26 23 20 16 12 10 9 9 9 8 8 8 8 9 9 10 9 9 8 8 8 7 6 6 6 7 8 8 8 7 8 9 11 10 10 10 12 12 12 12 12 12 13 16 21 23 24 25 26 27 27 27 28 28 28 28 29 29 29 29 29 29 30 30 30 30 30 30 30 31 31 31 31 29 27 25
23 24 24 24 24 23 23 23 23 23 24 24 23 21 16 11 9 9 9 8 7 8 8 9 9 9 9 9 9 9 9 8 7 7 7 6 7 7 8 8 8 9 10 10 10 10 12 11 11 11 11 11 11 13 16 20 22 23 25 26 27 27 27 27 28 28 28 28 28 28 28 29 29 29 29 30 30 30 30 30 31 30 28 24 18 15
20 20 20 20 20 20 20 20 20 21 22 22 22 19 14 9 8 8 9 8 7 8 9 9 9 9 9 9 9 10 10 9 8 7 7 6 6 7 7 8 8 8 8 8 9 9 9 9 9 9 10 11 11 11 12 15 17 19 21 23 25 25 26 26 26 27 27 27 27 27 28 28 28 29 29 29 29 30 30 31 30 27 22 17 14 12
14 14 15 15 16 16 16 16 16 17 19 20 19 17 13 9 7 7 8 7 7 8 9 9 9 9 8 9 9 9 9 8 7 6 6 5 6 6 7 8 8 8 7 7 7 8 7 7 7 7 9 11 11 11 10 11 12 13 14 17 19 21 23 24 25 25 26 26 27 27 27 28 28 28 28 29 29 29 30 31 28 23 15 12 11 10
11 11 11 12 12 12 12 11 12 13 14 15 15 14 11 8 7 7 7 7 7 8 8 9 9 9 8 7 7 7 7 7 6 6 6 5 5 6 8 8 8 8 7 6 6 7 8 7 6 7 8 10 10 11 11 11 11 11 11 12 13 15 19 21 23 23 24 25 25 26 27 27 27 28 28 28 29 29 30 30 28 22 14 12 11 11
11 10 10 10 10 9 9 9 9 9 10 10 10 10 9 8 8 7 7 7 7 7 8 8 9 9 9 8 8 8 7 8 8 8 7 6 5 6 7 8 8 8 7 6 6 7 8 7 7 7 8 9 10 10 11 11 10 10 10 11 11 13 16 18 19 19 19 21 23 24 25 26 27 27 27 28 28 29 29 30 27 22 15 12 11 11
10 10 9 9 9 9 8 8 8 8 8 8 8 8 8 8 8 8 7 7 7 7 7 8 9 9 9 9 10 9 9 9 10 10 10 7 6 6 7 8 9 9 8 8 7 7 7 8 8 9 9 9 9 9 10 10 10 10 10 10 10 11 14 14 14 15 15 17 18 20 22 23 24 25 26 27 27 28 28 29 27 24 19 14 12 12
10 10 10 9 9 9 8 8 8 8 8 8 8 8 7 7 8 8 8 7 7 7 7 8 8 9 9 9 10 10 11 11 11 12 10 7 6 6 7 9 9 9 9 8 8 8 8 9 10 10 9 9 9 9 9 10 10 10 10 10 10 10 11 11 11 12 13 13 13 14 16 17 19 21 22 23 24 25 26 27 27 27 25 19 15 13
9 10 9 9 9 9 9 9 8 8 8 8 8 8 8 7 7 7 7 7 7 7 7 7 8 8 9 9 10 11 12 12 12 12 11 8 7 6 8 8 9 9 9 8 8 7 7 10 11 11 10 10 10 9 8 9 9 9 9 9 9 10 10 10 10 11 12 12 12 12 12 12 13 14 16 19 21 23 25 27 28 29 29 26 22 18
9 9 9 9 9 9 9 9 9 8 8 8 7 7 8 8 8 7 7 8 8 8 9 9 9 9 9 10 10 12 13 12 13 13 12 10 8 7 7 8 9 9 9 9 9 8 8 10 11 12 12 12 11 9 8 8 9 9 9 10 10 10 10 10 10 11 11 11 11 11 11 11 11 12 13 18 21 24 26 27 28 29 29 29 27 24
9 9 9 8 8 8 9 8 8 8 8 8 8 8 8 8 8 8 8 8 8 9 10 10 11 11 12 11 11 12 13 13 13 14 14 12 10 8 8 9 9 10 10 10 9 9 9 10 11 11 11 11 10 9 9 9 9 9 10 10 10 10 11 11 11 11 11 12 12 12 12 12 12 13 14 18 21 23 24 26 26 26 27 27 28 27
8 9 8 8 8 8 8 8 8 8 8 8 8 8 9 9 9 10 10 10 10 10 10 10 11 12 15 15 15 15 15 16 16 17 17 14 11 10 9 10 10 10 10 10 9 9 9 10 11 11 10 10 10 11 11 11 11 11 11 11 10 10 11 11 11 11 11 12 13 13 13 13 13 12 13 14 14 14 15 16 17 19 22 22 24 26
8 8 9 8 8 8 8 8 8 8 8 8 8 9 9 10 10 11 10 10 10 11 11 11 11 11 13 15 16 17 17 17 17 17 17 14 12 11 10 10 11 11 10 10 9 9 9 10 10 10 10 10 11 11 11 11 11 12 12 11 11 11 10 10 10 11 11 12 13 14 13 13 12 11 11 11 11 11 12 12 13 14 15 15 16 19
9 9 9 9 8 8 8 8 8 8 8 9 9 10 10 9 10 10 10 10 10 11 12 12 11 11 12 13 14 15 15 14 13 13 13 12 11 10 10 10 11 11 10 10 9 9 10 10 11 11 11 11 11 11 11 10 11 12 13 11 10 9 10 10 10 11 11 11 12 12 12 11 11 11 11 11 11 11 11 11 11 12 13 12 12 12
9 9 9 8 8 9 9 9 9 9 9 9 9 9 8 8 8 8 9 9 10 10 10 10 10 10 11 11 12 13 13 13 13 13 11 12 12 12 11 10 10 10 10 10 10 10 10 11 11 12 11 11 12 12 12 12 13 14 15 13 11 11 11 12 12 11 11 11 11 12 12 12 12 12 12 12 11 11 10 11 12 12 13 11 10 10
10 9 9 8 8 8 8 9 9 10 10 9 9 8 8 8 8 8 8 9 9 9 9 9 9 10 11 11 11 11 11 11 12 12 12 13 13 12 11 11 10 10 10 10 10 10 11 11 11 12 11 11 11 11 12 12 13 13 13 13 13 13 13 12 11 10 11 11 11 11 13 12 12 12 12 12 11 11 11 11 13 14 14 12 10 10
9 9 9 9 9 9 10 10 10 9 9 8 8 8 8 7 7 8 9 9 9 10 9 9 9 10 10 11 11 11 10 9 10 11 11 11 11 12 11 11 11 10 9 9 10 11 11 12 12 11 11 11 11 12 13 13 13 13 13 13 13 12 9 9 9 10 10 11 11 11 11 11 11 11 11 11 11 10 10 12 14 15 14 12 11 10
8 8 8 8 9 9 9 9 9 8 8 9 9 8 8 8 8 9 9 9 9 10 9 9 9 9 10 11 11 11 10 9 9 10 10 11 11 11 11 11 11 11 10 9 9 10 11 11 11 11 11 11 11 11 12 12 12 12 12 13 13 12 10 10 11 11 11 11 11 10 10 10 11 11 11 11 11 10 10 10 10 11 12 11 10 10
8 8 8 8 8 9 9 9 9 9 9 9 9 9 9 9 9 9 8 9 9 10 9 9 8 8 9 10 10 10 10 10 10 9 9 10 12 13 12 11 10 10 10 10 9 10 10 10 11 11 10 10 11 11 12 13 13 13 13 13 13 13 13 12 12 12 12 11 11 11 11 11 11 12 12 12 11 11 10 10 11 11 11 10 10 9
7 8 8 8 8 9 9 9 9 9 9 9 9 9 9 9 8 8 9 9 9 9 9 9 8 8 9 10 10 9 9 9 10 9 9 9 9 9 10 10 10 9 9 9 10 10 10 11 11 11 11 11 11 12 12 12 13 12 12 12 12 12 12 12 12 12 12 12 12 12 12 12 12 12 12 12 12 12 11 11 11 11 11 10 10 9
8 8 8 8 8 9 9 9 9 9 9 10 9 9 9 8 8 8 9 9 9 9 9 9 9 9 10 10 10 10 10 10 10 10 9 9 9 9 9 9 10 10 9 9 10 11 11 11 11 11 11 11 11 12 12 12 12 12 12 12 12 12 12 11 11 11 11 11 11 12 12 12 12 12 12 12 12 12 12 11 11 11 10 10 9 9
8 9 9 9 9 9 9 9 9 9 10 10 10 9 9 9 10 10 9 9 9 9 9 9 9 10 10 10 10 10 10 11 11 11 10 10 9 9 9 9 9 9 10 10 11 12 12 12 12 12 11 11 11 12 12 12 12 12 12 12 11 11 11 11 11 10 10 10 11 12 11 10 11 12 13 13 12 12 12 12 11 10 9 9 9 9
8 9 9 9 9 9 9 9 9 9 10 10 10 10 9 10 11 12 10 9 9 9 9 9 10 10 10 10 10 11 11 11 11 11 10 10 9 9 9 9 9 9 9 10 10 10 10 11 12 12 11 11 11 12 12 12 11 11 11 11 10 10 11 11 11 10 10 11 12 12 12 11 10 11 11 12 12 13 13 13 12 11 9 9 8 9
9 9 9 9 9 9 9 9 9 10 10 10 11 10 10 10 10 10 9 9 9 9 9 9 10 10 10 11 11 11 11 11 11 10 10 9 9 9 9 9 9 9 10 9 8 8 8 7 8 9 11 11 11 11 11 11 11 10 10 10 10 10 11 11 11 11 11 12 12 12 13 12 11 10 9 11 12 13 14 13 12 11 10 9 9 9
9 9 9 9 9 9 9 9 10 10 10 11 11 11 10 10 10 9 9 9 9 9 9 9 10 10 11 11 11 11 11 11 11 11 10 9 9 9 9 9 9 10 10 9 8 7 7 6 6 7 8 10 11 10 8 9 10 10 10 10 10 9 10 11 11 11 12 12 12 12 12 11 10 9 8 9 11 12 13 13 13 12 11 10 10 11
Wind_Direction
302 307 310 313 311 308 305 306 305 303 301 301 301 300 301 300 299 298 298 298 297 296 294 293 292 293 293 294 294 294 293 293 292 292 291 292 292 292 292 292 292 292 292 292 291 291 290 290 290 290 289 289 289 288 288 288 287 287 286 286 286 285 285 284 284 284 283 283 282 282 282 281 281 281 280 280 279 279 278 278 277 277 276 275 275 274
303 305 307 310 308 305 301 303 302 300 300 301 301 301 300 299 298 297 295 294 293 293 293 293 293 293 293 293 293 293 292 292 292 292 292 292 293 293 293 293 293 293 292 292 291 291 291 290 290 290 289 289 288 288 287 287 286 286 285 285 285 284 284 284 283 283 283 282 282 281 281 281 280 280 279 279 278 278 277 276 276 275 275 274 274 273
306 304 304 306 305 302 300 301 300 299 298 299 299 299 298 297 295 294 293 293 293 293 293 294 294 293 293 291 291 291 292 292 293 293 293 293 294 294 294 294 294 293 293 292 292 291 290 290 290 289 289 288 287 287 286 286 285 285 284 284 284 284 283 283 283 282 282 282 281 281 280 280 279 279 278 277 277 276 275 275 274 274 274 274 274 273
304 302 304 304 300 298 297 299 300 299 297 295 295 295 294 293 292 292 293 294 295 294 293 293 293 292 291 290 290 291 292 293 294 294 295 295 295 296 296 295 295 294 293 292 291 291 290 289 289 288 288 287 287 286 286 285 285 284 284 284 284 283 283 283 283 282 282 282 281 281 280 280 279 278 278 277 276 276 275 275 274 274 274 274 274 274
299 299 302 301 298 296 296 297 297 296 294 292 291 291 291 290 291 293 294 295 294 293 293 292 292 291 291 290 291 292 294 295 296 297 297 297 297 297 297 296 295 294 292 291 291 290 289 289 288 288 287 287 286 286 286 285 285 285 284 284 284 284 284 283 283 283 283 283 282 282 281 281 280 279 279 278 278 277 277 277 277 277 276 276 276 276
298 298 301 299 298 297 298 296 294 292 291 289 288 289 291 293 293 293 293 293 292 292 293 293 292 292 291 292 293 295 297 298 299 299 299 299 298 297 296 295 294 293 291 291 290 289 289 288 288 287 287 287 286 286 286 286 285 285 285 285 285 285 285 285 285 285 284 284 284 283 282 282 281 281 280 280 280 279 279 279 278 278 278 277 276 276
298 297 298 296 294 292 291 290 290 290 290 291 291 292 292 292 291 291 291 292 293 293 294 293 293 293 293 294 297 299 301 301 301 301 300 299 297 296 295 294 293 291 291 290 289 289 288 288 288 287 287 287 286 286 286 286 286 286 286 286 286 286 286 286 286 286 286 285 285 284 283 283 282 282 281 281 280 280 279 279 278 278 277 276 276 275
298 296 294 292 291 289 285 284 286 289 293 296 297 297 294 290 288 289 292 294 295 296 295 295 294 294 296 299 301 303 303 302 301 300 299 297 296 294 293 292 291 290 290 289 289 288 288 288 288 287 287 287 287 287 287 287 287 287 287 287 287 288 287 287 287 287 286 286 285 285 284 284 283 282 282 281 280 280 279 278 278 277 276 275 275 274
293 293 291 288 287 288 289 288 290 294 296 296 295 295 296 295 295 294 296 296 297 297 297 298 297 297 298 301 303 304 303 300 298 296 295 294 293 292 292 291 290 289 289 289 289 289 288 288 288 288 288 288 288 288 288 288 288 288 288 288 288 288 288 287 287 287 286 286 286 285 285 284 284 283 282 281 280 280 279 278 277 277 276 275 275 274
286 286 287 285 284 285 290 295 298 297 290 286 286 290 295 300 302 302 300 299 298 298 298 298 299 300 301 302 302 302 300 296 294 292 291 291 291 290 290 290 290 289 289 289 290 290 290 290 290 290 290 290 289 289 289 289 289 289 289 288 288 288 287 287 287 287 286 286 286 286 285 285 284 284 283 282 281 280 279 278 277 276 276 275 274 274
285 285 285 287 288 288 288 290 291 289 285 285 287 290 295 300 303 303 302 301 300 299 298 299 300 301 303 303 301 299 297 294 292 291 290 290 290 290 291 291 290 290 291 291 292 292 292 292 292 291 291 290 290 290 290 289 289 289 288 288 287 287 287 287 286 286 286 286 286 286 285 285 284 284 283 282 281 280 279 278 277 276 275 274 273 273
288 288 288 290 292 292 288 285 286 288 293 296 298 298 298 299 299 299 299 300 301 301 301 300 300 299 300 301 300 297 294 291 290 289 290 290 291 291 292 292 292 292 293 293 293 293 293 292 292 292 291 291 290 290 289 289 288 288 287 287 287 287 287 287 286 286 286 286 285 285 285 284 284 283 282 281 280 279 278 277 276 275 274 273 272 272
286 286 286 287 290 292 295 297 299 301 303 302 301 301 301 301 299 296 295 297 299 302 303 302 299 297 296 295 294 292 290 288 288 288 290 291 293 294 295 294 293 293 293 293 293 292 293 292 292 291 291 290 290 289 288 288 288 288 287 287 287 287 287 287 286 286 286 285 285 285 284 284 283 282 282 281 280 279 278 277 276 275 275 274 273 272
287 287 287 290 293 298 302 303 303 302 301 300 298 298 299 300 299 297 295 296 299 302 303 300 297 295 293 290 288 286 286 287 288 289 290 291 293 295 296 294 293 293 294 293 292 292 292 293 292 291 290 289 288 288 287 287 288 288 288 288 288 288 287 287 287 286 286 286 285 285 284 284 283 282 282 281 280 279 279 278 277 276 275 274 273 273
290 294 296 298 300 302 302 301 300 298 297 297 297 297 298 298 298 298 298 299 300 302 301 296 293 291 287 286 285 285 286 288 291 292 293 292 293 295 297 296 294 294 293 293 292 291 291 290 288 287 286 286 286 287 287 288 288 289 289 289 288 288 288 288 288 287 287 286 285 284 284 283 283 282 281 281 280 279 278 277 276 275 274 274 273 272
295 299 300 300 300 299 299 298 297 296 297 297 297 297 298 298 298 299 299 299 300 300 298 295 293 290 285 282 283 286 291 293 294 294 295 294 295 297 299 297 295 293 291 290 289 288 288 286 284 284 285 286 287 288 288 288 289 289 289 289 289 289 289 288 287 287 286 285 284 284 283 283 282 281 281 280 280 279 278 277 276 275 274 273 272 271
298 299 298 297 296 296 296 295 294 294 296 297 297 297 297 298 299 300 298 297 296 295 292 292 292 292 291 288 287 289 296 298 297 296 296 295 296 297 299 296 293 290 289 287 287 287 288 286 285 285 285 285 287 288 289 290 290 290 290 290 289 289 288 288 287 287 286 285 285 284 284 283 282 282 281 280 279 279 278 277 276 275 274 273 272 271
297 297 295 293 293 294 295 294 293 293 294 295 296 297 296 297 297 296 294 292 290 288 287 286 285 286 291 294 296 299 306 304 301 299 296 294 294 295 296 292 289 287 287 286 286 286 286 285 284 283 284 287 288 289 290 291 290 290 290 289 289 289 288 288 288 288 287 287 286 285 285 284 283 282 281 280 279 278 277 276 275 274 274 273 272 270
293 291 290 290 290 291 292 292 292 294 294 295 297 297 296 295 293 291 289 286 284 282 281 281 281 282 287 291 296 302 310 306 302 298 294 292 292 292 293 289 286 284 284 284 285 285 285 284 284 285 287 288 289 290 290 290 290 290 290 289 289 289 289 289 289 288 288 287 287 286 285 285 284 283 282 281 280 279 278 277 275 274 273 272 271 271
288 287 286 288 290 291 289 288 289 291 293 295 296 295 294 292 290 287 284 282 279 277 276 279 283 288 292 294 297 301 307 305 300 293 289 288 288 289 291 288 286 284 284 284 286 287 288 287 287 287 288 289 290 290 290 290 290 290 290 290 290 289 289 289 288 288 288 287 287 286 286 285 285 284 284 283 282 280 279 277 276 275 273 272 271 270
287 286 285 287 289 290 288 288 289 290 292 294 294 292 289 288 285 283 281 281 281 282 285 288 291 294 298 296 296 298 303 300 294 288 285 284 284 285 289 288 287 286 285 286 287 288 288 287 287 287 289 290 291 291 291 291 291 291 290 290 290 289 289 289 288 288 287 287 287 286 286 286 285 285 284 283 282 281 280 279 277 276 274 273 271 270
288 288 288 288 288 287 287 289 290 291 292 291 289 286 284 283 282 282 283 287 291 295 297 296 296 296 296 292 291 292 295 290 284 281 283 282 282 283 287 287 286 285 285 287 289 289 289 288 288 289 290 291 291 292 292 291 291 291 290 290 290 290 289 289 289 288 287 287 286 286 285 285 284 284 283 283 282 282 281 280 279 278 276 275 273 272
286 287 288 287 286 286 287 288 289 289 288 285 282 279 278 279 282 286 294 299 301 300 299 296 294 292 289 287 286 286 285 280 277 276 278 280 282 285 289 289 287 286 284 288 291 293 292 291 290 291 291 291 292 292 292 291 291 291 291 290 290 290 289 289 288 287 287 286 286 285 285 284 283 283 283 282 282 281 281 280 280 279 278 277 276 274
283 283 285 285 285 284 284 284 284 283 282 278 275 274 275 280 286 292 298 300 299 297 296 294 292 289 285 284 283 283 281 279 278 277 277 279 282 287 291 291 289 287 286 289 293 296 295 293 291 291 291 291 291 291 291 291 291 291 291 290 290 289 288 288 288 287 287 287 287 286 286 285 284 284 283 282 282 281 280 279 279 278 277 277 276 275
282 283 283 283 282 281 280 280 281 282 283 281 282 285 290 294 297 298 298 297 295 294 293 292 290 288 287 287 286 285 285 285 284 282 279 280 282 285 288 290 290 289 289 292 294 295 295 293 292 291 291 291 291 291 291 291 290 290 290 289 289 289 288 289 289 289 289 288 288 287 286 286 285 284 283 283 282 281 280 280 278 277 277 276 275 275
286 285 285 284 284 284 284 285 287 289 291 292 294 298 301 302 301 299 295 293 293 293 292 290 288 287 288 289 289 288 288 287 285 282 281 282 284 286 288 289 289 289 290 292 294 295 295 293 293 293 292 290 290 290 290 289 290 290 289 290 290 290 291 291 291 290 290 289 288 287 286 285 284 283 283 283 282 282 281 280 280 279 278 277 276 275
289 288 287 286 287 288 290 291 293 294 296 297 298 300 301 301 299 295 290 290 292 293 291 289 288 288 289 288 287 287 289 289 287 285 284 283 284 285 287 289 290 291 292 294 295 296 295 293 293 293 291 289 288 288 289 290 291 292 292 293 293 293 293 292 291 290 289 288 287 286 285 284 283 283 282 282 282 282 282 282 281 281 280 280 278 276
289 288 287 288 290 292 294 296 297 298 299 299 299 299 299 297 293 289 287 290 292 291 286 285 286 288 289 288 288 289 291 289 288 287 285 282 281 282 287 293 295 296 296 296 295 293 291 289 289 289 288 288 287 288 290 293 295 295 295 295 294 293 292 291 290 289 288 287 286 286 285 284 283 283 283 283 283 283 283 283 283 283 283 282 281 278
288 288 289 291 294 297 300 300 300 300 299 298 298 297 295 290 285 282 284 288 289 286 282 282 283 285 287 289 290 290 288 285 285 285 287 284 282 283 291 295 297 298 299 298 295 291 286 284 284 286 288 290 292 294 295 297 297 296 295 294 293 292 291 291 290 290 289 288 287 287 286 285 284 284 283 284 284 284 284 284 284 285 284 283 280 276
292 294 296 299 301 302 303 301 300 298 297 296 295 293 290 284 278 276 280 282 282 280 280 281 282 284 287 290 291 289 284 281 284 290 297 293 288 288 294 296 297 298 302 301 299 295 289 284 284 287 291 295 296 296 296 297 296 294 293 293 292 292 291 291 291 291 291 290 289 288 288 287 286 286 285 285 285 285 285 285 285 285 284 281 277 272
302 304 305 305 304 303 301 298 295 294 293 293 292 290 287 281 275 273 273 274 273 274 276 279 281 283 285 288 289 287 284 285 293 303 309 298 289 289 294 294 294 294 298 299 300 300 299 296 293 292 294 296 295 295 294 294 293 293 292 292 292 291 291 292 292 292 292 292 291 291 290 289 289 288 287 286 286 285 285 285 285 285 283 279 275 271
307 307 304 303 302 300 297 294 292 291 290 289 288 286 283 280 277 274 272 270 269 270 273 276 279 280 280 279 279 279 281 287 295 301 302 293 287 286 290 290 291 292 293 291 290 292 297 300 301 301 299 295 294 292 292 292 292 292 292 292 290 290 291 292 293 293 293 293 293 293 292 290 290 289 287 287 286 285 284 284 284 283 281 277 274 271
305 303 301 300 298 296 293 291 290 289 288 287 286 285 284 281 279 276 273 270 268 268 270 273 276 278 277 275 274 274 276 281 288 293 294 290 286 286 289 289 290 291 292 288 284 282 284 290 297 300 299 294 292 292 292 292 291 290 289 289 289 290 292 294 294 294 294 294 293 292 291 290 289 288 287 286 285 284 284 283 283 282 280 278 275 272
301 299 298 296 295 293 291 290 289 289 288 288 288 287 286 284 281 279 276 273 270 267 266 269 271 274 277 277 276 275 276 278 283 289 293 290 287 286 289 289 289 290 292 288 285 282 280 284 290 295 297 295 293 291 291 291 290 289 287 287 288 290 293 295 295 294 293 292 291 290 290 289 287 286 285 285 284 283 283 283 283 283 283 281 279 277
298 297 296 295 294 293 293 292 291 290 290 290 290 289 288 286 284 281 279 276 273 270 266 264 265 267 270 273 275 276 277 280 284 289 291 287 284 284 286 285 287 288 289 287 287 286 284 285 288 291 295 296 294 291 289 289 289 289 288 287 288 290 291 293 292 292 292 291 289 287 287 286 285 284 283 283 283 283 283 284 284 285 285 284 283 281
296 295 295 295 294 294 295 294 294 294 293 292 292 290 289 288 286 284 282 279 276 274 271 267 264 262 262 264 267 271 275 279 283 286 285 282 280 280 281 281 283 285 285 285 284 284 284 285 287 289 290 292 293 293 292 291 291 291 290 290 289 289 289 289 290 290 290 289 288 286 285 285 284 282 281 282 283 283 284 284 285 285 285 285 284 282
294 294 294 295 295 295 295 295 296 296 295 294 293 292 290 289 289 287 285 281 278 276 274 271 267 263 260 259 260 263 268 274 278 279 279 277 275 274 274 276 279 280 280 281 282 283 283 285 286 287 287 287 289 293 297 299 297 294 291 291 291 290 289 289 288 288 287 286 285 285 285 285 284 283 282 283 283 284 284 284 284 285 285 284 284 283
294 294 294 295 295 295 295 295 296 295 295 294 293 292 291 290 289 288 286 283 279 275 273 271 269 266 263 261 260 261 264 268 271 273 273 272 270 269 269 273 275 275 273 274 277 279 281 283 285 287 286 284 284 287 292 297 297 295 292 291 290 289 288 288 287 286 285 284 285 285 285 285 284 283 282 282 282 282 282 282 283 283 284 284 284 283
295 294 295 295 295 295 295 295 295 295 294 294 293 292 291 290 288 287 285 283 280 277 275 273 272 270 267 265 263 263 264 265 267 268 269 268 267 266 267 270 272 273 272 271 272 273 275 276 279 281 284 286 286 287 288 290 291 292 293 293 290 286 285 287 287 287 286 286 286 286 285 283 282 280 280 280 281 281 282 283 284 285 286 286 285 283
295 294 294 295 296 296 295 295 295 295 295 293 292 291 290 289 288 287 285 284 282 281 280 278 277 275 273 272 270 269 269 268 268 268 268 265 263 262 263 266 269 272 272 270 269 268 268 270 273 275 277 281 284 287 288 287 287 289 293 294 292 290 290 290 290 288 286 284 282 282 282 281 280 280 280 281 282 282 282 283 284 285 285 285 285 284
296 295 296 297 298 297 296 296 296 296 295 294 292 291 289 289 289 289 288 287 285 285 284 284 282 280 279 277 276 276 275 274 273 271 269 265 262 260 260 261 264 267 270 269 268 266 266 269 271 273 274 276 279 282 283 283 286 288 291 290 290 290 292 291 289 286 284 280 279 279 281 283 284 284 284 283 281 279 278 279 281 282 283 280 278 278
295 296 297 299 299 299 299 298 297 296 295 293 291 289 288 288 289 289 290 290 290 289 289 289 288 287 286 283 281 279 277 275 272 270 269 266 263 260 259 259 260 263 266 267 267 267 266 268 270 272 273 275 278 280 282 283 284 286 288 288 290 292 292 287 284 282 282 282 282 283 284 285 286 285 285 284 282 280 278 276 276 277 279 277 274 271
294 294 296 297 298 298 299 298 298 296 295 292 290 288 288 288 288 289 289 289 289 290 290 289 289 288 288 288 287 286 283 278 275 274 273 270 267 264 262 260 259 260 261 264 267 268 268 267 268 269 271 274 276 278 281 284 286 286 286 287 289 292 292 289 287 286 284 284 284 284 284 285 285 285 285 285 284 283 280 278 276 274 273 272 271 268
292 293 295 296 297 298 298 298 297 296 295 293 291 290 290 289 288 288 287 286 287 288 289 288 287 286 284 285 287 290 291 289 286 282 279 276 273 271 269 266 263 261 258 260 264 269 272 271 270 270 272 274 276 277 279 282 284 285 284 284 284 283 281 285 289 290 287 284 282 283 284 286 287 288 287 286 285 284 282 280 277 274 272 270 269 267
292 294 295 296 298 298 298 297 297 296 295 293 292 291 291 291 289 288 286 287 287 287 287 288 288 286 284 284 287 290 293 294 293 291 286 282 280 279 278 275 272 268 262 260 261 264 269 272 274 275 276 275 274 274 277 280 282 283 282 282 280 278 276 279 282 284 285 286 286 288 289 291 291 291 290 289 288 287 286 285 283 281 278 275 271 269
294 295 296 297 297 297 296 296 297 296 295 293 292 291 292 292 291 289 287 287 287 287 287 287 286 285 284 287 289 291 293 294 294 295 294 292 289 287 284 280 277 274 269 265 262 261 262 266 271 276 279 277 275 273 273 277 280 281 282 282 281 280 279 279 280 282 284 287 289 290 292 294 294 292 291 291 291 291 289 287 285 283 282 280 277 273
297 297 297 297 296 296 295 296 296 295 294 293 293 294 295 295 294 292 289 288 288 288 288 287 285 282 282 285 288 290 291 293 294 295 296 296 295 292 289 285 281 277 273 270 267 264 262 263 266 270 274 276 277 276 275 275 277 279 281 282 282 282 281 282 282 283 284 286 288 292 296 297 295 293 291 291 292 292 291 288 285 283 282 281 280 278
299 298 298 297 297 296 296 296 296 295 295 295 295 296 297 297 297 296 293 292 290 289 289 288 285 283 282 284 285 287 288 290 292 294 295 296 296 294 293 290 287 283 278 275 273 270 268 265 263 263 265 268 272 274 276 276 276 277 279 282 283 283 283 284 286 287 288 288 290 292 295 295 294 293 293 293 293 293 293 292 290 287 284 282 282 281
299 298 298 298 297 296 296 296 296 296 296 296 297 298 298 298 297 296 293 292 290 288 287 286 285 284 284 285 286 287 288 289 290 291 293 294 295 295 295 294 292 289 286 282 278 275 272 268 262 257 254 257 263 269 274 276 276 277 279 282 284 285 287 289 291 293 294 293 292 291 291 289 289 289 291 291 292 293 295 295 294 293 290 287 284 283
298 297 297 297 296 296 295 296 296 296 296 297 297 297 297 297 296 294 292 290 288 287 285 285 285 285 286 287 288 289 290 290 290 291 292 294 296 297 296 296 295 294 292 289 286 284 282 277 267 258 251 252 257 264 272 276 279 282 283 285 288 290 292 293 294 296 297 295 294 292 290 288 286 285 286 287 290 293 296 296 296 296 295 293 291 288
298 297 296 296 295 295 295 296 296 296 295 295 295 295 295 295 295 294 292 291 289 288 286 286 285 285 286 287 288 289 290 290 291 292 293 295 297 297 296 296 296 297 296 296 296 296 295 295 289 279 267 263 264 267 274 281 286 289 290 290 292 293 293 294 295 295 296 294 292 291 289 288 287 287 287 289 291 294 296 296 297 298 299 299 297 294